COSMOS 372

Satellite information

Favourite Embed

Satellite Type and Status

PAYLOADIN ORBIT

Key statistics

Satellite COSMOS 372 at a glance.

Uptime

20092

Days in orbit

Revolutions

≈ 14.4

Per day

Orbit

LEO

Low Earth Orbit

Inclination

74.1

Latest

Satellite identification and parameters

Extended collection of information and parameters for COSMOS 372.

Object identification

Identified? True

Debris? False

Object name: COSMOS 372

International designator: 1970-086A

Object number (NORAD): 4588

Object ID (CCSDS): 4588

Country: COMMONWEALTH OF INDEPENDENT STATES (CIS)

Current information (Y/N): Y

RCS size: LARGE

Orbital parameters

Period: 100.219 minutes

Inclination: 74.0536 deg

SMA: 7147.063 km

Apoapsis: 777.616 km

Periapsis: 760.24 km

RAAN: 297.7514 deg

Eccentricy: 0.00121561

Argument of periapsis: 126.2349 deg

Mean anomaly: 47.4323 deg

Mean motion: 14.36849758 rev/day

Mean motion (dot): 0.0000026 rev/day2

B* drag term: 0.000096792491 1/REarth

Two-line elements (TLE)

Creation date: Oct. 19, 2025, 2:20 a.m.

Reference frame: TEME

Reference center: EARTH

Epoch: Oct. 18, 2025, 6:44 p.m. UTC

TLE line 0: 0 COSMOS 372

TLE line 1: 1 04588U 70086A 25291.78067087 .00000260 00000-0 96792-4 0 9993

TLE line 2: 2 04588 74.0536 297.7514 0012156 126.2349 47.4323 14.36849758878246

Live tracking on map

Real-time ground track for satellite COSMOS 372.

In-orbit conjunctions

A list of the most updated potential collisions computed for object COSMOS 372.

Target Orbit TCA Probability of collision Miss distance Type
COSMOS 1275 DEB LEO 2025-10-13 03:17:36 0.0002269964 516.0 (m) DEBRIS
DELTA 1 DEB SSO 2025-03-30 19:38:58 0.0002918312 254.0 (m) DEBRIS
DELTA 1 DEB SSO 2025-03-30 14:37:44 0.0001363026 440.0 (m) DEBRIS
FENGYUN 1C DEB SSO 2025-03-20 09:30:13 0.0001412548 863.0 (m) DEBRIS
NOAA 16 DEB SSO 2025-03-14 12:19:11 0.0002897449 212.0 (m) DEBRIS

Associated space launch

Military communications satellite

COSMOS 372 was lifted into orbit during the mission ‘Kosmos-3M | Strela-2M 2’, on board a Kosmos-3M space rocket.

The launch took place on Oct. 16, 1970, 2:59 p.m. from 132/1 (132L).

For more information about the launch, click the button.

Launch to space Kosmos-3M | Strela-2M 2
Kosmos-3M | Strela-2M 2

Agency: N/A

Status: Launch Successful

Launch date: Oct. 16, 1970, 2:59 p.m. UTC

Rocket: Kosmos-3M

Launch pad: 132/1 (132L)

Location: Plesetsk Cosmodrome, Russian Federation

...

Latest news about this satellite

There are no fresh news available about this satellite. Check back as we update our databases every day.


Newsletter sign-up

Weekly statistics, charts and insights to help you stay on top of the space industry.